Weather History for KEED - December, 2012

Change the Weather History Date:

Monday, December 17, 2012

  Actual Average Record
Temperature  
Mean Temperature 56 °F -  
Max Temperature 61 °F 64 °F 77 °F (1980)
Min Temperature 52 °F 41 °F 30 °F (1992)
Degree Days  
Heating Degree Days 8    
Growing Degree Days 6 (Base 50)    
Moisture  
Dew Point 44 °F    
Average Humidity 65    
Maximum Humidity 77    
Minimum Humidity 49    
Precipitation  
Precipitation 0.00 in - - ()
Sea Level Pressure  
Sea Level Pressure 30.03 in    
Wind  
Wind Speed 4 mph (SW)    
Max Wind Speed 8 mph    
Max Gust Speed -    
Visibility 10 miles    
Events      
Averages and records for this station are not official NWS values.
T = Trace of Precipitation, MM = Missing Value Source: NWS Daily Summary

Daily Weather History Graph

Daily Weather History Graph

Search for Another Location

Airport or City:

Trip Planner

Search our weather history database for the weather conditions in past years. The results will help you decide how hot, cold, wet, or windy it might be!

Date:

Astronomy

Dec. 17, 2012 Rise Set
Actual Time 6:40 AM PST 4:29 PM PST
Civil Twilight 6:12 AM PST 4:57 PM PST
Nautical Twilight 5:40 AM PST 5:29 PM PST
Astronomical Twilight 5:09 AM PST 6:00 PM PST
Moon 10:00 AM PST (12/17) 9:44 PM PST (12/17)
Length of Visible Light 10h 45m
Length of Day
9h 49m
Waxing Crescent, 26% of the Moon is Illuminated
Dec 17
Waxing Crescent
Dec 19
First Quarter
Dec 28
Full
Jan 4
Last Quarter
Jan 11
New

Hourly Weather History & Observations

Time (PST) Temp. Dew Point Humidity Pressure Visibility Wind Dir Wind Speed Gust Speed Precip Events Conditions
12:56 AM 52.0 °F 44.1 °F 74% 30.10 in 10.0 mi WSW 3.5 mph - N/A   Mostly Cloudy
1:56 AM 52.0 °F 43.0 °F 71% 30.10 in 10.0 mi West 5.8 mph - N/A   Overcast
2:56 AM 53.1 °F 42.1 °F 66% 30.10 in 10.0 mi WSW 6.9 mph - N/A   Overcast
3:56 AM 53.1 °F 42.1 °F 66% 30.09 in 10.0 mi WSW 5.8 mph - N/A   Overcast
4:56 AM 53.1 °F 43.0 °F 69% 30.09 in 10.0 mi WSW 5.8 mph - N/A   Overcast
5:56 AM 53.1 °F 43.0 °F 69% 30.10 in 10.0 mi WSW 5.8 mph - N/A   Overcast
6:56 AM 53.1 °F 44.1 °F 71% 30.10 in 10.0 mi WSW 4.6 mph - N/A   Overcast
7:56 AM 54.0 °F 43.0 °F 66% 30.10 in 10.0 mi West 4.6 mph - N/A   Overcast
8:56 AM 55.0 °F 42.1 °F 62% 30.12 in 10.0 mi Calm Calm - N/A   Overcast
9:56 AM 57.0 °F 42.1 °F 57% 30.11 in 10.0 mi Calm Calm - N/A   Overcast
10:56 AM 59.0 °F 41.0 °F 51% 30.08 in 10.0 mi South 4.6 mph - N/A   Overcast
11:56 AM 60.1 °F 41.0 °F 49% 30.05 in 10.0 mi SSE 5.8 mph - N/A   Mostly Cloudy
12:56 PM 60.1 °F 42.1 °F 51% 30.02 in 10.0 mi SE 8.1 mph - N/A   Overcast
1:56 PM 61.0 °F 43.0 °F 52% 29.98 in 10.0 mi SSE 8.1 mph - N/A   Overcast
4:56 PM 57.0 °F 45.0 °F 64% 29.97 in 10.0 mi SSE 5.8 mph - N/A   Overcast
5:56 PM 55.0 °F 45.0 °F 69% 29.97 in 10.0 mi SSW 4.6 mph - N/A   Clear
6:56 PM 53.1 °F 46.0 °F 77% 29.96 in 10.0 mi West 3.5 mph - N/A   Mostly Cloudy
7:56 PM 55.9 °F 46.9 °F 72% 29.96 in 10.0 mi Calm Calm - N/A   Overcast
8:56 PM 57.0 °F 46.0 °F 67% 29.96 in 10.0 mi Calm Calm - N/A   Overcast
9:56 PM 55.9 °F 46.9 °F 72% 29.94 in 10.0 mi WSW 3.5 mph - N/A   Overcast
10:56 PM 57.0 °F 46.9 °F 69% 29.93 in 10.0 mi Calm Calm - N/A   Overcast
11:56 PM 57.0 °F 46.9 °F 69% 29.90 in 10.0 mi Calm Calm - N/A   Overcast